Retour au catalogue

SL-14 R/B

ActifPO
NORAD 23659·ROCKET BODY·🇷🇺 Russia

Lancé Aug 31, 1995 depuis Plesetsk Cosmodrome

Loading…

Prochains Passages (prochaines 24 heures)

TLE

FraisSource: Space-Track

Époque: Sep 14, 2026, 09:34 UTC

1 23659U 95046C   26257.39927019  .00000249  00000-0  29388-4 0  9990
2 23659  82.5283  49.7337 0024276 343.6614  46.1220 14.80426051673211

Suivez SL-14 R/B en temps réel avec AllMySat

Download on the App Store